ISOI (RS19S SXC3-219)

Last updated on Wed Sep 13 2023 00:03:03 GMT+0000 (Coordinated Universal Time)

1 53381U 22096M 23255.55754684 .00032023 00000+0 77843-3 0 9991 2 53381 97.4036 162.5668 0005757 100.3268 259.8628 15.40907317 61115
UTC large
Height (km)
Speed (km/s)
/
Latitude / Longitude
Inclination (degrees)
Orbital Period (minutes)
Azimuth
Elevation
Range (km)
Doppler Factor

Next 0 passes for location: London (51.5072 / 0.1276)

Sorry there are no passes over London.
ISOI (RS19S SXC3-219)